Date String (YYYY-MM-DD hh:mm:ss) UTC,Instrument flags,Ambient pressure (hPa),Sample flow (lpm),Bypass flow (lpm),Sample temperature (°C),Ambient temperature (°C),ASC tube jacket temperature (°C),LED temperature (°C),Box temperature (°C),Sample RH (%),Span deviation,Mass concentration (μg/m³),Mass concentration (μg/m³),Mass concentration (μg/m³)
DateTimeUTC,F1_M11,P_M11,Q1_M11,Q2_M11,T1_M11,T2_M11,T3_M11,T4_M11,T5_M11,U1_M11,ZSPAN_M11,X0_M11,X2_M11,X1_M11
2022-12-28 01:00:00,,0809.1,4.99,0.00,25.5,24.2,00.0,34.3,27.3,14.3,0000.0,0001.36,0000.74,0000.55
2022-12-28 01:01:00,,0809.2,5.00,0.00,25.5,24.1,00.0,34.3,27.3,13.9,0000.0,0001.20,0000.71,0000.50
2022-12-28 01:02:00,,0809.3,4.99,0.00,25.5,24.1,00.0,34.3,27.3,15.5,0000.0,0001.20,0000.67,0000.44
2022-12-28 01:03:00,,0809.2,5.01,0.00,25.5,24.1,00.0,34.3,27.2,16.1,0000.0,0001.19,0000.60,0000.37
2022-12-28 01:04:00,,0809.1,5.01,0.00,25.5,24.0,00.0,34.3,27.3,16.4,0000.0,0001.05,0000.51,0000.29
2022-12-28 01:05:00,,0809.1,5.01,0.00,25.4,24.0,00.0,34.3,27.3,16.5,0000.0,0000.93,0000.44,0000.23
2022-12-28 01:06:00,,0809.0,5.00,0.00,25.4,24.0,00.0,34.3,27.3,16.6,0000.0,0000.92,0000.42,0000.21
2022-12-28 01:07:00,,0809.1,5.00,0.00,25.4,23.9,00.0,34.3,27.2,16.7,0000.0,0000.88,0000.39,0000.19
2022-12-28 01:08:00,,0809.0,5.00,0.00,25.4,23.9,00.0,34.3,27.2,16.8,0000.0,0000.91,0000.38,0000.16
2022-12-28 01:09:00,,0809.1,5.01,0.00,25.4,23.9,00.0,34.3,27.1,16.6,0000.0,0001.07,0000.37,0000.15
2022-12-28 01:10:00,,0809.1,5.00,0.00,25.4,23.9,00.0,34.3,27.2,16.6,0000.0,0001.01,0000.34,0000.14
2022-12-28 01:11:00,,0809.1,5.00,0.00,25.4,23.8,00.0,34.3,27.1,16.6,0000.0,0000.93,0000.30,0000.11
2022-12-28 01:12:00,,0809.2,5.01,0.00,25.4,23.8,00.0,34.3,27.1,16.5,0000.0,0000.91,0000.28,0000.08
2022-12-28 01:13:00,,0809.2,5.01,0.00,25.3,23.8,00.0,34.3,27.1,16.5,0000.0,0000.78,0000.22,0000.06
2022-12-28 01:14:00,,0809.3,5.00,0.00,25.3,23.8,00.0,34.3,27.1,16.4,0000.0,0000.61,0000.19,0000.06
2022-12-28 01:15:00,,0809.2,4.99,0.00,25.3,23.8,00.0,34.2,27.1,16.4,0000.0,0000.58,0000.18,0000.05
2022-12-28 01:16:00,,0809.3,4.99,0.00,25.3,23.8,00.0,34.2,27.1,16.4,0000.0,0000.56,0000.17,0000.05
2022-12-28 01:17:00,,0809.3,5.00,0.00,25.3,23.8,00.0,34.2,27.0,16.5,0000.0,0000.56,0000.17,0000.05
2022-12-28 01:18:00,,0809.4,5.00,0.00,25.3,23.8,00.0,34.2,27.0,16.5,0000.0,0000.57,0000.18,0000.05
2022-12-28 01:19:00,,0809.4,5.00,0.00,25.3,23.7,00.0,34.2,27.0,16.7,0000.0,0000.47,0000.15,0000.04
2022-12-28 01:20:00,,0809.5,5.00,0.00,25.3,23.7,00.0,34.2,27.0,16.7,0000.0,0000.26,0000.13,0000.05
2022-12-28 01:21:00,,0809.5,5.01,0.00,25.3,23.7,00.0,34.2,27.0,16.6,0000.0,0000.25,0000.13,0000.05
2022-12-28 01:22:00,,0809.4,5.01,0.00,25.3,23.8,00.0,34.2,27.0,16.7,0000.0,0000.34,0000.15,0000.04
2022-12-28 01:23:00,,0809.5,5.01,0.00,25.3,23.8,00.0,34.2,27.0,16.4,0000.0,0000.32,0000.14,0000.04
2022-12-28 01:24:00,,0809.6,5.00,0.00,25.2,23.8,00.0,34.2,26.9,16.7,0000.0,0000.34,0000.14,0000.04
2022-12-28 01:25:00,,0809.6,4.99,0.00,25.2,23.8,00.0,34.2,26.9,16.7,0000.0,0000.33,0000.14,0000.04
2022-12-28 01:26:00,,0809.7,4.99,0.00,25.2,23.8,00.0,34.2,26.9,16.6,0000.0,0000.34,0000.14,0000.04
2022-12-28 01:27:00,,0809.7,4.99,0.00,25.2,23.8,00.0,34.2,27.0,16.6,0000.0,0000.38,0000.16,0000.04
2022-12-28 01:28:00,,0809.9,5.00,0.00,25.2,23.8,00.0,34.1,27.0,16.6,0000.0,0000.44,0000.16,0000.04
2022-12-28 01:29:00,,0809.9,5.00,0.00,25.2,23.8,00.0,34.1,27.0,16.5,0000.0,0000.51,0000.16,0000.04
2022-12-28 01:30:00,,0809.9,5.01,0.00,25.2,23.8,00.0,34.1,27.0,16.5,0000.0,0000.53,0000.16,0000.04
2022-12-28 01:31:00,,0809.9,5.00,0.00,25.2,23.6,00.0,34.1,27.0,16.2,0000.0,0000.64,0000.19,0000.05
2022-12-28 01:32:00,,0809.7,5.00,0.00,25.2,23.5,00.0,34.1,26.9,16.2,0000.0,0000.71,0000.22,0000.07
2022-12-28 01:33:00,,0809.9,5.00,0.00,25.1,23.5,00.0,34.1,26.9,16.0,0000.0,0000.68,0000.23,0000.09
2022-12-28 01:34:00,,0809.9,5.00,0.00,25.1,23.5,00.0,34.1,26.9,16.0,0000.0,0000.87,0000.29,0000.12
2022-12-28 01:35:00,,0809.9,5.00,0.00,25.1,23.5,00.0,34.1,26.9,15.9,0000.0,0001.53,0000.34,0000.15
2022-12-28 01:36:00,,0809.7,5.00,0.00,25.1,23.4,00.0,34.1,26.8,15.7,0000.0,0001.87,0000.38,0000.17
2022-12-28 01:37:00,,0809.8,5.00,0.00,25.1,23.5,00.0,34.1,26.8,15.7,0000.0,0001.95,0000.42,0000.20
2022-12-28 01:38:00,,0809.9,5.00,0.00,25.0,23.5,00.0,34.1,26.8,15.8,0000.0,0002.02,0000.46,0000.23
2022-12-28 01:39:00,,0809.6,4.99,0.00,25.0,23.5,00.0,34.0,26.8,15.9,0000.0,0002.14,0000.50,0000.25
2022-12-28 01:40:00,,0809.6,5.00,0.00,25.0,23.5,00.0,34.0,26.7,16.2,0000.0,0003.24,0000.51,0000.26
2022-12-28 01:41:00,,0809.7,5.00,0.00,25.0,23.6,00.0,34.0,26.8,15.8,0000.0,0005.11,0000.54,0000.29
2022-12-28 01:42:00,,0809.8,5.00,0.00,25.0,23.5,00.0,34.0,26.7,15.6,0000.0,0005.24,0000.57,0000.32
2022-12-28 01:43:00,,0809.7,5.01,0.00,25.0,23.5,00.0,34.0,26.8,15.3,0000.0,0005.40,0000.63,0000.34
2022-12-28 01:44:00,,0809.7,5.01,0.00,25.0,23.6,00.0,34.0,26.8,15.2,0000.0,0014.15,0000.87,0000.37
2022-12-28 01:45:00,,0809.7,5.00,0.00,25.0,23.6,00.0,34.0,26.9,14.8,0000.0,0041.10,0001.41,0000.41
2022-12-28 01:46:00,,0809.7,5.00,0.00,25.0,23.7,00.0,34.0,26.9,14.4,0000.0,0040.88,0001.43,0000.43
2022-12-28 01:47:00,,0809.7,5.00,0.00,25.0,23.6,00.0,34.0,26.9,14.3,0000.0,0040.75,0001.44,0000.45
2022-12-28 01:48:00,,0809.6,5.00,0.00,25.0,23.6,00.0,34.0,26.9,14.5,0000.0,0040.75,0001.46,0000.48
2022-12-28 01:49:00,,0809.6,5.00,0.00,25.0,23.6,00.0,34.0,26.9,14.5,0000.0,0040.79,0001.50,0000.50
2022-12-28 01:50:00,,0809.5,5.00,0.00,25.0,23.6,00.0,34.0,26.9,14.3,0000.0,0040.76,0001.54,0000.54
2022-12-28 01:51:00,,0809.6,5.00,0.00,25.0,23.6,00.0,34.0,26.9,14.1,0000.0,0040.24,0001.59,0000.58
2022-12-28 01:52:00,,0809.6,5.00,0.00,25.0,23.6,00.0,34.0,26.9,14.1,0000.0,0039.16,0001.63,0000.62
2022-12-28 01:53:00,,0809.6,5.01,0.00,25.0,23.5,00.0,34.0,26.8,14.1,0000.0,0039.15,0001.66,0000.63
2022-12-28 01:54:00,,0809.5,5.01,0.00,25.0,23.4,00.0,34.0,26.8,14.4,0000.0,0039.66,0001.67,0000.65
2022-12-28 01:55:00,,0809.5,5.00,0.00,25.0,23.4,00.0,34.0,26.8,14.4,0000.0,0029.71,0001.46,0000.66
2022-12-28 01:56:00,,0809.5,5.00,0.00,25.0,23.5,00.0,34.0,26.8,14.5,0000.0,0002.70,0000.97,0000.65
2022-12-28 01:57:00,,0809.4,5.00,0.00,25.0,23.6,00.0,33.9,26.8,14.3,0000.0,0002.59,0000.99,0000.68
2022-12-28 01:58:00,,0809.4,5.00,0.00,25.0,23.7,00.0,33.9,26.8,14.6,0000.0,0002.64,0001.03,0000.70
2022-12-28 01:59:00,,0809.4,4.99,0.00,25.0,23.7,00.0,33.9,26.9,14.5,0000.0,0002.63,0001.03,0000.70
